GW6068 Weather Reports


time (UTC)temp
C
wind
direction
speed
KPH
gust
KPH
rain 1hr
cm
rain 24hr
cm
rain mn
cm
humidity
%
barometer
mb
20260507125118 0 250 6.4 9.7 0.00 0.00 0.00 67
20260507124614 -1 244 4.8 9.7 0.00 0.00 0.00 66
20260507124112 -1 240 9.7 14.5 0.00 0.00 0.00 66
20260507123610 -1 243 8.0 12.9 0.00 0.00 0.00 66
20260507123107 -1 255 4.8 8.0 0.00 0.00 0.00 66
20260507122602 -1 252 8.0 9.7 0.00 0.00 0.00 66
20260507122058 -1 227 4.8 8.0 0.00 0.00 0.00 66
20260507121554 -1 217 3.2 8.0 0.00 0.00 0.00 67
20260507121050 -1 244 6.4 8.0 0.00 0.00 0.00 68
20260507120546 -2 274 1.6 3.2 0.00 0.00 0.00 68
20260507120043 -2 226 3.2 4.8 0.00 0.00 0.00 68
20260507115539 -2 224 3.2 4.8 0.00 0.00 0.00 69
20260507115035 -2 212 0.0 0.0 0.00 0.00 0.00 69
20260507114531 -3 103 0.0 1.6 0.00 0.00 0.00 69
20260507114029 -3 198 1.6 3.2 0.00 0.00 0.00 70
20260507113526 -3 205 0.0 1.6 0.00 0.00 0.00 71
20260507113023 -3 217 0.0 3.2 0.00 0.00 0.00 70
20260507112521 -2 247 1.6 3.2 0.00 0.00 0.00 69
20260507112017 -3 254 4.8 6.4 0.00 0.00 0.00 70
20260507111514 -2 259 3.2 3.2 0.00 0.00 0.00 68
20260507111010 -2 209 0.0 1.6 0.00 0.00 0.00 67
20260507110508 -2 29 0.0 1.6 0.00 0.00 0.00 67
20260507110004 -2 236 0.0 3.2 0.00 0.00 0.00 66
20260507105500 -1 279 3.2 3.2 0.00 0.00 0.00 66
20260507104957 -1 286 4.8 4.8 0.00 0.00 0.00 65
20260507104454 -1 260 3.2 4.8 0.00 0.00 0.00 65
20260507103950 -1 263 6.4 6.4 0.00 0.00 0.00 65
20260507103447 -1 275 6.4 6.4 0.00 0.00 0.00 65
20260507102943 -1 278 8.0 8.0 0.00 0.00 0.00 66
20260507102440 -1 292 4.8 4.8 0.00 0.00 0.00 65
20260507101937 -1 279 3.2 4.8 0.00 0.00 0.00 65
20260507101432 -1 279 3.2 4.8 0.00 0.00 0.00 64
20260507100928 -1 275 4.8 4.8 0.00 0.00 0.00 64
20260507100426 -1 315 4.8 6.4 0.00 0.00 0.00 64
20260507095924 -1 1 8.0 8.0 0.00 0.00 0.00 64
20260507095421 -1 14 0.0 3.2 0.00 0.00 0.00 64
20260507094918 -1 35 3.2 3.2 0.00 0.00 0.00 63
20260507094414 0 52 1.6 3.2 0.00 0.00 0.00 61
20260507093911 0 224 0.0 4.8 0.00 0.00 0.00 60
20260507093409 0 251 8.0 9.7 0.00 0.00 0.00 60
20260507092907 0 261 6.4 8.0 0.00 0.00 0.00 59
20260507092403 0 218 6.4 8.0 0.00 0.00 0.00 58
20260507091900 0 219 6.4 12.9 0.00 0.00 0.00 58
20260507091356 0 214 9.7 11.3 0.00 0.00 0.00 58
20260507090852 0 217 12.9 17.7 0.00 0.00 0.00 58
20260507090348 0 214 6.4 14.5 0.00 0.00 0.00 57
20260507085845 0 226 6.4 9.7 0.00 0.00 0.00 57
20260507085342 1 204 8.0 11.3 0.00 0.00 0.00 56
20260507084840 1 224 9.7 12.9 0.00 0.00 0.00 56
20260507084336 1 219 6.4 11.3 0.00 0.00 0.00 56
20260507083834 1 226 11.3 12.9 0.00 0.00 0.00 56
20260507083330 1 221 4.8 8.0 0.00 0.00 0.00 56
20260507082826 0 185 3.2 8.0 0.00 0.00 0.00 58
20260507082321 0 246 0.0 6.4 0.00 0.00 0.00 58
20260507081819 0 312 1.6 3.2 0.00 0.00 0.00 59
20260507081315 0 346 4.8 6.4 0.00 0.00 0.00 60
20260507080812 0 28 6.4 8.0 0.00 0.00 0.00 60
20260507080308 0 27 3.2 4.8 0.00 0.00 0.00 59
20260507075803 0 7 1.6 3.2 0.00 0.00 0.00 58
20260507075259 0 224 0.0 3.2 0.00 0.00 0.00 57
20260507074756 0 238 1.6 3.2 0.00 0.00 0.00 56
20260507074255 0 3 1.6 3.2 0.00 0.00 0.00 55
20260507073751 0 325 3.2 4.8 0.00 0.00 0.00 55
20260507073247 1 310 4.8 4.8 0.00 0.00 0.00 52
20260507072745 1 205 6.4 9.7 0.00 0.00 0.00 53
20260507072242 1 247 3.2 8.0 0.00 0.00 0.00 53
20260507071740 1 277 6.4 8.0 0.00 0.00 0.00 51
20260507071236 1 306 3.2 8.0 0.00 0.00 0.00 51
20260507070733 1 240 6.4 8.0 0.00 0.00 0.00 51
20260507070230 1 283 3.2 4.8 0.00 0.00 0.00 51
20260507065726 1 260 6.4 14.5 0.00 0.00 0.00 51
20260507065223 1 263 11.3 12.9 0.00 0.00 0.00 51
20260507064721 1 257 8.0 12.9 0.00 0.00 0.00 51
20260507064220 1 256 9.7 9.7 0.00 0.00 0.00 51
20260507063716 1 256 6.4 6.4 0.00 0.00 0.00 51
20260507063213 1 256 9.7 9.7 0.00 0.00 0.00 51
20260507062710 1 272 8.0 9.7 0.00 0.00 0.00 53
20260507062208 1 298 3.2 6.4 0.00 0.00 0.00 52
20260507061705 1 232 4.8 8.0 0.00 0.00 0.00 51
20260507061203 1 183 6.4 8.0 0.00 0.00 0.00 51
20260507060701 1 191 12.9 14.5 0.00 0.00 0.00 50
20260507060157 1 180 9.7 12.9 0.00 0.00 0.00 49
20260507055653 1 187 12.9 14.5 0.00 0.00 0.00 49
20260507055149 1 182 12.9 14.5 0.00 0.00 0.00 49
20260507054645 1 177 11.3 12.9 0.00 0.00 0.00 49
20260507054142 0 168 11.3 12.9 0.00 0.00 0.00 52
20260507053640 0 166 4.8 4.8 0.00 0.00 0.00 54
20260507053138 0 19 1.6 3.2 0.00 0.00 0.00 53
20260507052636 0 80 1.6 3.2 0.00 0.00 0.00 52
20260507052132 0 92 3.2 3.2 0.00 0.00 0.00 50
20260507051630 0 122 3.2 4.8 0.00 0.00 0.00 48
20260507051126 0 95 4.8 8.0 0.00 0.00 0.00 47
20260507050623 0 108 6.4 8.0 0.00 0.00 0.00 47
20260507050120 0 102 8.0 9.7 0.00 0.00 0.00 47
20260507045617 0 92 6.4 8.0 0.00 0.00 0.00 48
20260507045113 0 103 4.8 8.0 0.00 0.00 0.00 49
20260507044610 0 103 4.8 8.0 0.00 0.00 0.00 49
20260507044108 0 101 6.4 8.0 0.00 0.00 0.00 48
20260507043603 0 97 8.0 8.0 0.00 0.00 0.00 48
20260507043101 0 103 6.4 8.0 0.00 0.00 0.00 45
20260507042556 0 97 4.8 4.8 0.00 0.00 0.00 46
20260507042052 1 84 6.4 6.4 0.00 0.00 0.00 44
20260507041549 1 105 6.4 9.7 0.00 0.00 0.00 43
20260507041046 1 111 6.4 9.7 0.00 0.00 0.00 43
20260507040543 1 111 4.8 6.4 0.00 0.00 0.00 41
20260507040039 2 110 4.8 6.4 0.00 0.00 0.00 41
20260507035535 2 121 3.2 4.8 0.00 0.00 0.00 39
20260507035031 2 89 4.8 8.0 0.00 0.00 0.00 38
20260507034528 3 109 6.4 6.4 0.00 0.00 0.00 36
20260507034026 3 109 4.8 6.4 0.00 0.00 0.00 36
20260507033524 3 126 4.8 6.4 0.00 0.00 0.00 36
20260507033021 3 114 4.8 6.4 0.00 0.00 0.00 36
20260507032518 3 132 6.4 8.0 0.00 0.00 0.00 37
20260507032014 2 125 4.8 6.4 0.00 0.00 0.00 38
20260507031510 3 113 3.2 4.8 0.00 0.00 0.00 38
20260507031008 3 141 3.2 4.8 0.00 0.00 0.00 37
20260507030504 4 120 3.2 3.2 0.00 0.00 0.00 37
20260507030002 5 132 3.2 6.4 0.00 0.00 0.00 37
20260507025459 5 91 4.8 8.0 0.00 0.00 0.00 38
20260507024956 5 100 4.8 6.4 0.00 0.00 0.00 38
20260507024454 5 94 8.0 8.0 0.00 0.00 0.00 35
20260507023949 5 71 9.7 11.3 0.00 0.00 0.00 34
20260507023446 5 71 9.7 9.7 0.00 0.00 0.00 34
20260507022943 6 58 9.7 9.7 0.00 0.00 0.00 34
20260507022441 6 45 6.4 8.0 0.00 0.00 0.00 33
20260507021936 6 56 6.4 9.7 0.00 0.00 0.00 32
20260507021431 7 59 4.8 6.4 0.00 0.00 0.00 32
20260507020930 7 64 6.4 8.0 0.00 0.00 0.00 31
20260507020426 8 45 8.0 9.7 0.00 0.00 0.00 30
20260507015923 8 39 9.7 9.7 0.00 0.00 0.00 29
20260507015421 8 27 8.0 8.0 0.00 0.00 0.00 29
20260507014918 9 25 8.0 8.0 0.00 0.00 0.00 28
20260507014414 10 28 6.4 9.7 0.00 0.00 0.00 27
20260507013910 10 22 8.0 11.3 0.00 0.00 0.00 26
20260507013408 10 22 9.7 12.9 0.00 0.00 0.00 25
20260507012905 11 9 9.7 14.5 0.00 0.00 0.00 25
20260507012401 11 11 12.9 14.5 0.00 0.00 0.00 24
20260507011859 11 0 14.5 16.1 0.00 0.00 0.00 24
20260507011355 11 1 17.7 19.3 0.00 0.00 0.00 22
20260507010855 12 358 20.9 25.7 0.00 0.00 0.00 22
20260507010351 12 339 9.7 20.9 0.00 0.00 0.00 23
20260507005848 12 337 16.1 24.1 0.00 0.00 0.00 23
20260507005345 12 351 9.7 22.5 0.00 0.00 0.00 23
20260507004842 12 343 9.7 16.1 0.00 0.00 0.00 23
20260507004339 12 311 14.5 16.1 0.00 0.00 0.00 22
20260507003836 12 322 20.9 24.1 0.00 0.00 0.00 21
20260507003331 12 304 16.1 22.5 0.00 0.00 0.00 22
20260507002826 12 318 11.3 19.3 0.00 0.00 0.00 22
20260507002323 12 339 9.7 16.1 0.00 0.00 0.00 22
20260507001820 12 302 17.7 22.5 0.00 0.00 0.00 22
20260507001317 12 299 14.5 22.5 0.00 0.00 0.00 21
20260507000813 12 355 9.7 22.5 0.00 0.00 0.00 22
20260507000309 12 340 17.7 29.0 0.00 0.00 0.00 21
20260506235806 12 0 8.0 17.7 0.00 0.00 0.00 21
20260506235306 12 344 8.0 24.1 0.00 0.00 0.00 22
20260506234759 11 331 20.9 27.4 0.00 0.00 0.00 22
20260506234256 12 338 14.5 24.1 0.00 0.00 0.00 21
20260506233754 11 347 11.3 22.5 0.00 0.00 0.00 22
20260506233250 11 330 19.3 37.0 0.00 0.00 0.00 21
20260506232747 12 0 12.9 33.8 0.00 0.00 0.00 21
20260506232247 12 342 33.8 33.8 0.00 0.00 0.00 21
20260506231745 12 330 12.9 12.9 0.00 0.00 0.00 21
20260506231243 11 326 17.7 27.4 0.00 0.00 0.00 22
20260506230740 13 311 29.0 38.6 0.00 0.00 0.00 21
20260506230237 12 316 9.7 16.1 0.00 0.00 0.00 22
20260506225733 12 335 25.7 27.4 0.00 0.00 0.00 21
20260506225230 12 336 20.9 35.4 0.00 0.00 0.00 21
20260506224727 12 297 19.3 33.8 0.00 0.00 0.00 22
20260506224224 12 314 12.9 33.8 0.00 0.00 0.00 22
20260506223720 12 56 6.4 11.3 0.00 0.00 0.00 21
20260506223216 11 334 9.7 17.7 0.00 0.00 0.00 22
20260506222713 12 334 20.9 32.2 0.00 0.00 0.00 20
20260506222208 12 326 29.0 33.8 0.00 0.00 0.00 21
20260506221707 12 296 25.7 30.6 0.00 0.00 0.00 22
20260506221205 12 280 9.7 20.9 0.00 0.00 0.00 22
20260506220701 12 13 22.5 24.1 0.00 0.00 0.00 22
20260506220156 12 234 11.3 20.9 0.00 0.00 0.00 23
20260506215653 12 314 9.7 24.1 0.00 0.00 0.00 23
20260506215148 11 311 12.9 30.6 0.00 0.00 0.00 22
20260506214646 12 336 24.1 37.0 0.00 0.00 0.00 20
20260506214143 11 344 8.0 11.3 0.00 0.00 0.00 23
20260506213641 11 295 4.8 14.5 0.00 0.00 0.00 23
20260506213138 11 325 14.5 49.9 0.00 0.00 0.00 23
20260506212635 11 352 9.7 20.9 0.00 0.00 0.00 23
20260506212130 11 295 12.9 35.4 0.00 0.00 0.00 24
20260506211626 11 336 24.1 32.2 0.00 0.00 0.00 24
20260506211123 11 329 22.5 30.6 0.00 0.00 0.00 22
20260506210620 11 324 19.3 27.4 0.00 0.00 0.00 23
20260506210116 11 305 3.2 32.2 0.00 0.00 0.00 24
20260506205613 11 296 8.0 24.1 0.00 0.00 0.00 24
20260506205108 11 351 14.5 17.7 0.00 0.00 0.00 24
20260506204606 10 313 14.5 33.8 0.00 0.00 0.00 24